Home   Weather   Detroit   Past weeks
Flag for USA

Past Weather in Detroit, Michigan, USA — Yesterday and Last 2 Weeks

Now
42 °F

Light rain. Mostly cloudy.


Feels Like: 37 °F
Forecast: 43 / 37 °F
Wind: 9 mph from West

Location: Detroit City Airport

Current Time: Mar 30, 2020 at 8:01:09 pm

Latest Report: Mar 30, 2020 at 6:53 pm


Visibility: 10 mi

Pressure: 30.05 "Hg

Humidity: 76%

Dew Point: 35 °F

Location of DetroitLocation

Past Weather in Detroit — Graph

°F

Detroit Temperature Yesterday

Maximum temperature yesterday: 64 °F (at 10:53 am)
Minimum temperature yesterday: 45 °F (at 12:16 am)
Average temperature yesterday: 51 °F

High & Low Weather Summary for the Past Weeks

 TemperatureHumidityPressure
High65 °F (Mar 20, 8:53 am)100% (Mar 18, 8:53 pm)30.63 "Hg (Mar 18, 8:53 pm)
Low20 °F (Mar 22, 6:53 am)27% (Mar 17, 6:53 pm)29.50 "Hg (Mar 29, 11:53 am)
Average41 °F77%30.08 "Hg
* Reported Mar 15 6:53 pm — Mar 30 6:53 pm, Detroit. Weather by CustomWeather, © 2020

Note: Actual official high and low records may vary slightly from our data, if they occured in-between our weather recording intervals... More about our weather records

Detroit Weather History for the Previous 24 Hours

Scroll right to see more
 ConditionsComfort  
Time TempWeatherWind HumidityBarometerVisibility
6:53 pm
Mon, Mar 30
42 °FLight rain. Mostly cloudy.9 mph76%30.05 "Hg10 mi
5:53 pm44 °FMore clouds than sun.8 mph71%30.03 "Hg10 mi
5:16 pm43 °FLight rain. More clouds than sun.8 mph76%30.01 "Hg10 mi
4:53 pm44 °FLight rain. Mostly cloudy.10 mph71%30.02 "Hg10 mi
4:13 pm44 °FMostly cloudy.12 mph68%30.00 "Hg10 mi
3:53 pm45 °FMore clouds than sun.10 mph65%30.00 "Hg10 mi
2:53 pm44 °FOvercast.13 mph68%29.99 "Hg10 mi
1:53 pm44 °FOvercast.14 mph68%29.99 "Hg10 mi
12:53 pm43 °FOvercast.14 mph71%29.98 "Hg10 mi
11:53 am44 °FOvercast.12 mph68%29.96 "Hg10 mi
10:53 am43 °FOvercast.13 mph71%29.93 "Hg10 mi
9:53 am43 °FOvercast.15 mph68%29.91 "Hg10 mi
8:53 am43 °FOvercast.10 mph68%29.90 "Hg10 mi
7:53 am43 °FOvercast.16 mph68%29.88 "Hg10 mi
7:29 am43 °FMore clouds than sun.13 mph71%29.86 "Hg10 mi
7:03 am42 °FOvercast.10 mph76%29.85 "Hg10 mi
6:53 am43 °FOvercast.13 mph74%29.85 "Hg10 mi
5:53 am43 °FMostly cloudy.15 mph76%29.83 "Hg10 mi
4:53 am44 °FMostly cloudy.15 mph68%29.80 "Hg10 mi
3:53 am46 °FOvercast.12 mph63%29.79 "Hg10 mi
2:53 am47 °FMostly cloudy.18 mph59%29.79 "Hg10 mi
1:53 am48 °FOvercast.16 mph59%29.79 "Hg10 mi
12:53 am48 °FMostly cloudy.14 mph56%29.79 "Hg10 mi
11:53 pm
Sun, Mar 29
50 °FOvercast.12 mph54%29.78 "Hg10 mi
10:53 pm50 °FMostly cloudy.23 mph57%29.78 "Hg10 mi
9:53 pm51 °FOvercast.22 mph54%29.78 "Hg10 mi
8:53 pm51 °FOvercast.16 mph54%29.76 "Hg10 mi
Weather by CustomWeather, © 2020

See weather overview

Advertising